Regional Weather Roundup
Issued by NWS

Home | Current Version | Previous Version | Graphics & Text | Print | Product List | Glossary On
Versions: 1 2 3 4 5 6 7 8 9 10 11 12 13 14 15 16 17 18 19 20 21 22 23 24 25 26 27 28 29 30 31 32 33 34 35 36 37 38 39 40 41 42 43 44 45 46 47 48 49 50
000
ASUS43 KDMX 192307
RWRIA

WEATHER ROUNDUP FOR IOWA
NATIONAL WEATHER SERVICE DES MOINES IA
600 PM CDT SUN OCT 19 2014

NOTE: "FAIR" INDICATES FEW OR NO CLOUDS BELOW 12,000 FEET WITH NO
SIGNIFICANT WEATHER AND/OR OBSTRUCTIONS TO VISIBILITY.

* - THESE STATIONS ARE NOT NWS STATIONS...THUS NOT UNDER NWS
QUALITY CONTROL.  THEY ALSO DO NOT REPORT WEATHER SUCH
AS PRECIPITATION OR FOG.

IAZ001>003-012>014-020>022-031>034-043>046-200000-
   NORTHWEST IOWA

CITY           SKY/WX    TMP DP  RH WIND       PRES   REMARKS
CARROLL *      CLEAR     66  48  52 SW9       29.91S
CHEROKEE *     CLEAR     66  48  52 W6        29.89S
DENISON *      CLEAR     70  48  46 SW6G13    29.89F
LE MARS *      CLEAR     72  46  40 CALM      29.90S
ORANGE CITY *  CLEAR     72  45  37 W6        29.89S
SHELDON *      CLEAR     70  45  40 W7        29.86F
SIOUX CITY     CLEAR     74  45  35 W6        29.89F
SPENCER        CLEAR     68  45  43 W10       29.87F
STORM LAKE *   CLEAR     68  46  45 W9        29.91R
$$

IAZ055>058-069>071-079>083-090>094-200000-
   SOUTHWEST IOWA

CITY           SKY/WX    TMP DP  RH WIND       PRES   REMARKS
ATLANTIC *     CLEAR     66  48  52 SW10      29.92F
AUDUBON *      CLEAR     66  45  45 CALM      29.93S
CLARINDA *     CLEAR     66  48  52 SW8G15    29.97S
COUNCIL BLFS * CLEAR     70  50  49 SW9       29.92F
CRESTON *      CLEAR     64  46  52 SW10      29.96S
HARLAN  *      CLEAR     68  50  52 SW8       29.96S
LAMONI         PTCLDY    62  47  57 S10       29.97F
RED OAK *      PTCLDY    68  48  49 SW7       29.95
SHENANDOAH *   CLEAR     68  48  49 SW9       29.95F
$$

IAZ047>049-059>061-072>074-084-200000-
   CENTRAL IOWA

CITY           SKY/WX    TMP DP  RH WIND       PRES   REMARKS
AMES           CLEAR     63  45  51 SW8       29.92R
ANKENY *       CLEAR     64  48  55 SW8G15    29.92S
CHARITON *     PTCLDY    63  45  51 SW10      29.96S
DES MOINES     PTCLDY    66  46  48 SW10      29.93S
GRINNELL*      CLEAR     61  45  55 S8        29.93F
KNOXVILLE *    CLEAR     63  43  48 SW13G20   29.93S
MARSHALLTOWN   CLEAR     62  47  57 SW10      29.90F
PELLA *        PTCLDY    63  45  51 SW9       29.94F
PERRY *          N/A     66  46  48 SW9       29.92S
$$

IAZ004>006-015-016-023>025-035-036-200000-
   NORTH CENTRAL IOWA

CITY           SKY/WX    TMP DP  RH WIND       PRES   REMARKS
ALGONA *       CLEAR     68  46  45 W12       29.86F
CLARION *      CLEAR     66  46  48 SW12G17   29.87F
ESTHERVILLE    CLEAR     68  44  42 W9        29.85S
FORT DODGE *   CLEAR     64  46  52 SW9       29.89F
MASON CITY     CLEAR     65  47  52 SW12      29.86F
FOREST CITY *  CLEAR     64  46  52 SW6       29.85S
IOWA FALLS *     N/A     63  46  55 SW12      29.90S
$$

IAZ007>011-017>019-026>030-037>042-050>054-066-200000-
   NORTHEAST IOWA

CITY           SKY/WX    TMP DP  RH WIND       PRES   REMARKS
CEDAR RAPIDS   CLEAR     60  44  55 S13       29.91F
CHARLES CITY * CLEAR     63  45  51 SW10      29.86F
CLINTON *      MOCLDY    57  43  58 S12       29.98F
DECORAH *      CLEAR     61  46  59 SW12G22   29.85F
DUBUQUE        CLEAR     57  43  59 S16       29.90F
MONTICELLO *   CLEAR     59  43  55 S10       29.91F
OELWEIN *      CLEAR     61  46  59 SW14      29.90S
WATERLOO       CLEAR     62  45  53 SW13      29.89R
$$

IAZ064-065-067-068-078-200000-
   EAST CENTRAL IOWA

CITY           SKY/WX    TMP DP  RH WIND       PRES   REMARKS
DAVENPORT      MOCLDY    58  42  55 S10       29.96F
IOWA CITY      MOCLDY    60  44  55 S8        29.95F
MT. PLEASANT * MOCLDY    61  41  48 SW10      29.98F
MUSCATINE *    CLOUDY    63  43  48 S9        29.96F
QUAD CITIES    CLOUDY    59  42  53 SW9       29.96F
$$

IAZ062-063-075>077-085>089-095>099-200000-
   SOUTHEAST IOWA

CITY           SKY/WX    TMP DP  RH WIND       PRES   REMARKS
BURLINGTON     MOCLDY    60  44  55 S8        29.98F
FAIRFIELD *    MOCLDY    61  43  51 S9        29.97F
FORT MADISON * CLEAR     63  45  51 S5        30.00S
KEOKUK *       MOCLDY    61  43  51 S8G16     29.99F
OSKALOOSA *      N/A     61  45  55 SW8       29.96S
CENTERVILLE *  CLEAR     61  46  59 S7        29.99F
OTTUMWA        MOCLDY    61  42  49 S9        29.95F
WASHINGTON *   MOCLDY    61  45  55 SW12      29.96S
$$

ABBREVIATIONS USED IN REMARKS
   TC - TEMPERATURES IN CELSIUS
  WCI - WIND CHILL INDEX
   HX - HEAT INDEX
  VSB - VISIBILITY
$$




USA.gov is the U.S. government's official web portal to all federal, state and local government web resources and services.